Regional Weather Roundup
Issued by NWS Green Bay, WI

Home | Current Version | Previous Version | Text Only | Print | Product List | Glossary On
Versions: 1 2 3 4 5 6 7 8 9 10 11 12 13 14 15 16 17 18 19 20 21 22 23 24 25 26 27 28 29 30 31 32 33 34 35 36 37 38 39 40 41 42 43 44 45 46 47 48 49 50
000
ASUS43 KGRB 201912
RWRGRB

NORTH-CENTRAL AND NORTHEAST WISCONSIN REGIONAL WEATHER ROUNDUP
NATIONAL WEATHER SERVICE GREEN BAY WI
200 PM CDT THU JUL 20 2017

WIZ005-009-010>012-018-019-202000-
NORTH CENTRAL WISCONSIN

CITY           SKY/WX    TMP DP  RH WIND       PRES   REMARKS
IRONWOOD       MOSUNNY   78  64  61 NW10G17   29.99
MANITOWISH WTR MOSUNNY   82  62  51 NW14      29.99F
ARBOR VITAE    SUNNY     82  63  51 W6G18     29.99F
EAGLE RIVER    PTSUNNY   81  59  46 NW13G18   29.99F
LAND O LAKES   PTSUNNY   83  58  42 W10       30.00F
RHINELANDER    CLOUDY    83  63  50 W16       30.01F
PHILLIPS       CLOUDY    80  66  62 W6        30.01F
ANTIGO         SUNNY     81  65  58 NW10      30.00F
TOMAHAWK         N/A     80  63  55 W12       30.01F
MERRILL        SUNNY     82  66  57 W8        30.00F
$$

WIZ013-073-202000-
NORTHEAST WISCONSIN

CITY           SKY/WX    TMP DP  RH WIND       PRES   REMARKS
IRON MOUNTAIN  PTSUNNY   87  61  41 NW8       29.94S
MARINETTE      CLOUDY    82  66  58 W8        29.94F
OCONTO         SUNNY     83  67  58 W8        29.93F
$$

WIZ017-030-035>037-045-202000-
CENTRAL WISCONSIN

CITY           SKY/WX    TMP DP  RH WIND       PRES   REMARKS
MEDFORD        CLOUDY    80  64  57 W8        30.01S
WAUSAU         SUNNY     82  66  58 W12       29.98F
MOSINEE        MOSUNNY   81  66  61 NW10G16   30.01F
MARSHFIELD     MOSUNNY   82  66  58 W9        30.00F
WISC RAPIDS    CLOUDY    82  68  62 NW10      30.00F
STEVENS POINT  MOSUNNY   80  65  60 NW9       29.99F
WAUPACA        MOSUNNY   85  67  54 W7        29.97S
SHAWANO        MOSUNNY   85  66  52 W8G17     29.95F
CLINTONVILLE   MOSUNNY   82  64  54 NW9G17    29.96F
WAUTOMA        SUNNY     85  70  60 NW10        N/A
$$

WIZ038-039-048-051-202000-
FOX VALLEY

CITY           SKY/WX    TMP DP  RH WIND       PRES   REMARKS
NWS GREEN BAY  SUNNY     84  71  65 NW12      29.95S
APPLETON       MOSUNNY   82  64  54 NW12G17   29.95F
OSHKOSH        SUNNY     84  70  62 NW13      29.95F
FOND DU LAC    MOSUNNY   83  69  62 NW6       29.96F
$$

WIZ022-050-052-202000-
EAST CENTRAL WISCONSIN

CITY           SKY/WX    TMP DP  RH WIND       PRES   REMARKS
EPHRAIM        FAIR      78  64  62 W9G16     29.93F
WASHINGTON ISL MOCLDY    77  65  67 SW10      29.93R
STURGEON BAY     N/A     79  67  66 W15       29.94F
MANITOWOC      SUNNY     84  69  60 NW12      29.94F
SHEBOYGAN      MOSUNNY   83  72  69 NW6       29.96S
$$

LMZ563-521-522-541>543-202000-
LAKESHORE

STATION/POSITION TIME  TEMP    WIND        PRES    VSBY  WAVE
                       AIR SEA DIR/SP/G                  HT/PER
                 (UTC) (F)     (DEG/KT/KT) (MB)    (MI)  (FT/S)
SHEBOYGAN LKSHOR 1900   70     160/ 11/ 11 1013.7R
KEWAUNEE LKSHORE 1842   83     280/  6/ 14 1013.2F
NORTHPORT PIER   1840   79     260/  4/ 10 1013.2S
N MID LAKE BUOY  1850   67 65  200/  8/  8 1013.9F         2/ 6
S GREEN BAY BUOY 1900   76 73  300/  8/ 10 1013.6F
SISTER BAY LKSHO 1902   82     280/  4/  4   N/A
CHAMBERS ISLAND  1840   80     220/  6/ 10 1012.9F
MENOMINEE LKSHOR 1842   82     290/  7/ 14 1013.4F
$$



USA.gov is the U.S. government's official web portal to all federal, state and local government web resources and services.